TimeMST,TemperatureF,Dew PointF,Humidity,Sea Level PressureIn,VisibilityMPH,Wind Direction,Wind SpeedMPH,Gust SpeedMPH,PrecipitationIn,Events,Conditions,WindDirDegrees,DateUTC
12:08 AM,37.4,33.8,87,29.79,5.0,SW,12.7,19.6,0.03,Rain,Rain,230,2013-01-28 07:08:00
12:41 AM,35.6,33.8,93,29.78,10.0,South,5.8,16.1,0.08,,Mostly Cloudy,170,2013-01-28 07:41:00
12:51 AM,35.6,33.8,93,29.78,10.0,Calm,Calm,-,0.08,,Mostly Cloudy,0,2013-01-28 07:51:00
12:53 AM,35.1,33.1,92,29.76,10.0,Calm,Calm,-,0.08,,Mostly Cloudy,0,2013-01-28 07:53:00
1:01 AM,35.6,33.8,93,29.77,10.0,North,3.5,-,N/A,,Overcast,10,2013-01-28 08:01:00
1:53 AM,35.1,32.0,89,29.75,10.0,ESE,6.9,-,N/A,,Scattered Clouds,110,2013-01-28 08:53:00
2:53 AM,37.0,32.0,82,29.73,10.0,East,4.6,-,N/A,,Overcast,100,2013-01-28 09:53:00
3:50 AM,35.6,32.0,87,29.75,6.0,Variable,4.6,-,0.02,Rain,Rain,0,2013-01-28 10:50:00
3:53 AM,35.1,32.0,89,29.73,7.0,WNW,11.5,-,0.02,Rain,Light Rain,300,2013-01-28 10:53:00
4:14 AM,35.6,32.0,87,29.75,10.0,NE,3.5,-,0.00,,Overcast,40,2013-01-28 11:14:00
4:53 AM,35.1,32.0,89,29.72,10.0,East,4.6,-,0.00,Rain,Light Rain,100,2013-01-28 11:53:00
5:07 AM,35.6,32.0,87,29.71,10.0,Variable,3.5,-,0.00,,Overcast,0,2013-01-28 12:07:00
5:33 AM,33.8,32.0,93,29.70,10.0,South,3.5,-,0.00,Rain,Light Rain,170,2013-01-28 12:33:00
5:53 AM,34.0,32.0,92,29.71,10.0,SW,6.9,-,0.01,Rain,Light Rain,230,2013-01-28 12:53:00
6:06 AM,33.8,32.0,93,29.71,8.0,SW,5.8,-,0.00,Rain,Light Rain,230,2013-01-28 13:06:00
6:21 AM,35.6,33.8,93,29.71,7.0,West,5.8,-,0.02,Rain,Light Rain,260,2013-01-28 13:21:00
6:46 AM,33.8,32.0,93,29.72,2.5,NW,3.5,-,0.02,Snow,Light Snow,310,2013-01-28 13:46:00
6:53 AM,33.1,32.0,96,29.72,1.2,WNW,8.1,-,0.03,Snow,Light Snow,300,2013-01-28 13:53:00
6:59 AM,32.0,32.0,100,29.70,1.2,WNW,8.1,-,0.00,Snow,Light Snow,300,2013-01-28 13:59:00
7:09 AM,33.8,32.0,93,29.70,3.0,WNW,9.2,-,0.00,Snow,Light Snow,300,2013-01-28 14:09:00
7:16 AM,33.8,32.0,93,29.70,2.5,WNW,11.5,-,0.01,Snow,Light Snow,290,2013-01-28 14:16:00
7:26 AM,33.8,30.2,87,29.71,2.5,West,17.3,-,0.01,Snow,Light Snow,280,2013-01-28 14:26:00
7:36 AM,32.0,30.2,93,29.71,3.0,West,15.0,-,0.01,Snow,Light Snow,270,2013-01-28 14:36:00
7:53 AM,32.0,30.9,96,29.74,1.8,West,15.0,-,0.01,Snow,Light Snow,270,2013-01-28 14:53:00
7:57 AM,32.0,30.2,93,29.73,2.0,West,15.0,-,0.01,Snow,Light Snow,280,2013-01-28 14:57:00
8:04 AM,32.0,30.2,93,29.72,1.8,West,13.8,-,0.01,Snow,Light Snow,280,2013-01-28 15:04:00
8:11 AM,32.0,32.0,100,29.72,1.2,West,11.5,-,0.01,Snow,Light Snow,280,2013-01-28 15:11:00
8:36 AM,32.0,32.0,100,29.72,3.0,WNW,5.8,-,0.01,Snow,Light Snow,290,2013-01-28 15:36:00
8:53 AM,32.0,32.0,100,29.74,2.0,WNW,6.9,-,0.01,Snow,Light Snow,300,2013-01-28 15:53:00
9:01 AM,32.0,32.0,100,29.73,1.2,WNW,10.4,-,0.01,Snow,Light Snow,290,2013-01-28 16:01:00
9:10 AM,32.0,32.0,100,29.73,1.0,WNW,4.6,-,0.01,Snow,Light Snow,290,2013-01-28 16:10:00
9:12 AM,32.0,32.0,100,29.73,1.2,West,3.5,-,0.01,Snow,Light Snow,280,2013-01-28 16:12:00
9:30 AM,33.8,30.2,87,29.73,1.0,WNW,8.1,-,0.01,Snow,Light Snow,300,2013-01-28 16:30:00
9:39 AM,33.8,30.2,87,29.73,0.5,Variable,3.5,-,0.01,Fog-Snow,Light Snow,0,2013-01-28 16:39:00
9:51 AM,32.0,30.2,93,29.73,1.2,Calm,Calm,-,0.02,Snow,Light Snow,0,2013-01-28 16:51:00
9:53 AM,33.1,30.9,92,29.74,1.2,Calm,Calm,-,0.02,Snow,Light Snow,0,2013-01-28 16:53:00
9:58 AM,33.8,30.2,87,29.73,1.5,Calm,Calm,-,0.00,Snow,Light Snow,0,2013-01-28 16:58:00
10:01 AM,33.8,30.2,87,29.73,1.0,Calm,Calm,-,0.00,Snow,Light Snow,0,2013-01-28 17:01:00
10:07 AM,33.8,32.0,93,29.74,0.5,Calm,Calm,-,0.01,Fog-Snow,Snow,0,2013-01-28 17:07:00
10:26 AM,32.0,30.2,93,29.74,0.2,WNW,11.5,-,0.02,Fog-Snow,Snow,300,2013-01-28 17:26:00
10:49 AM,30.2,28.4,93,29.75,0.8,WNW,18.4,-,0.03,Snow,Light Snow,300,2013-01-28 17:49:00
10:53 AM,30.0,28.0,92,29.78,0.8,WNW,16.1,-,0.03,Snow,Light Snow,300,2013-01-28 17:53:00
11:02 AM,30.2,28.4,93,29.75,1.0,WNW,12.7,-,0.00,Snow,Light Snow,300,2013-01-28 18:02:00
11:12 AM,30.2,28.4,93,29.75,0.8,WNW,8.1,-,0.01,Snow,Light Snow,290,2013-01-28 18:12:00
11:23 AM,30.2,28.4,93,29.75,0.8,WNW,8.1,-,0.01,Snow,Light Snow,300,2013-01-28 18:23:00
11:36 AM,30.2,26.6,86,29.75,0.5,WNW,12.7,-,0.02,Fog-Snow,Snow,300,2013-01-28 18:36:00
11:53 AM,30.0,27.0,88,29.77,0.5,WNW,16.1,25.3,0.04,Fog-Snow,Snow,300,2013-01-28 18:53:00
12:06 PM,30.2,26.6,86,29.74,1.2,WNW,13.8,-,0.00,Snow,Light Snow,290,2013-01-28 19:06:00
12:13 PM,30.2,26.6,86,29.73,2.0,WNW,11.5,-,0.00,Snow,Light Snow,300,2013-01-28 19:13:00
12:29 PM,32.0,26.6,80,29.72,2.0,WNW,12.7,-,0.00,Snow,Light Snow,300,2013-01-28 19:29:00
12:46 PM,30.2,26.6,86,29.72,1.5,WNW,13.8,-,0.00,Snow,Light Snow,290,2013-01-28 19:46:00
12:53 PM,30.9,27.0,85,29.75,0.8,WNW,16.1,-,0.00,Snow,Light Snow,290,2013-01-28 19:53:00
1:21 PM,30.2,26.6,86,29.73,1.2,West,10.4,-,0.01,Snow,Light Snow,280,2013-01-28 20:21:00
1:24 PM,30.2,26.6,86,29.73,2.5,WNW,11.5,-,0.01,Snow,Light Snow,290,2013-01-28 20:24:00
1:31 PM,30.2,26.6,86,29.73,9.0,WNW,12.7,-,0.01,,Overcast,300,2013-01-28 20:31:00
1:41 PM,30.2,24.8,80,29.73,10.0,West,10.4,-,0.01,,Overcast,280,2013-01-28 20:41:00
1:51 PM,30.2,24.8,80,29.72,2.5,West,3.5,-,0.01,Snow,Light Snow,260,2013-01-28 20:51:00
1:53 PM,30.9,25.0,79,29.75,2.5,Variable,3.5,-,0.01,Snow,Light Snow,0,2013-01-28 20:53:00
2:10 PM,30.2,24.8,80,29.73,1.2,Calm,Calm,-,0.00,Snow,Light Snow,0,2013-01-28 21:10:00
2:19 PM,30.2,26.6,86,29.73,1.0,Calm,Calm,-,0.00,Snow,Light Snow,0,2013-01-28 21:19:00
2:22 PM,30.2,26.6,86,29.74,0.8,Calm,Calm,-,0.00,Snow,Light Snow,0,2013-01-28 21:22:00
2:30 PM,28.4,26.6,93,29.74,0.5,Calm,Calm,-,0.01,Fog-Snow,Snow,0,2013-01-28 21:30:00
2:53 PM,28.9,27.0,92,29.75,0.5,Calm,Calm,-,0.03,Fog-Snow,Snow,0,2013-01-28 21:53:00
3:15 PM,28.4,26.6,93,29.73,1.2,SSE,3.5,-,0.01,Snow,Light Snow,150,2013-01-28 22:15:00
3:23 PM,28.4,26.6,93,29.72,1.0,Calm,Calm,-,0.02,Snow,Light Snow,0,2013-01-28 22:23:00
3:32 PM,28.4,26.6,93,29.72,1.5,Calm,Calm,-,0.02,Snow,Light Snow,0,2013-01-28 22:32:00
3:37 PM,28.4,26.6,93,29.72,3.0,Calm,Calm,-,0.02,Snow,Light Snow,0,2013-01-28 22:37:00
3:46 PM,28.4,26.6,93,29.74,7.0,SW,3.5,-,0.02,Snow,Light Snow,230,2013-01-28 22:46:00
3:53 PM,28.9,27.0,92,29.76,6.0,SW,3.5,-,0.02,Snow,Light Snow,230,2013-01-28 22:53:00
4:01 PM,28.4,26.6,93,29.74,1.8,Calm,Calm,-,0.00,Snow,Light Snow,0,2013-01-28 23:01:00
4:09 PM,28.4,26.6,93,29.74,0.8,West,8.1,-,0.00,Snow,Light Snow,270,2013-01-28 23:09:00
4:53 PM,27.0,21.9,81,29.78,0.5,WNW,15.0,24.2,0.01,Snow,Snow,300,2013-01-28 23:53:00
5:14 PM,28.4,21.2,74,29.75,1.2,WNW,12.7,-,0.01,Snow,Light Snow,290,2013-01-29 00:14:00
5:18 PM,28.4,19.4,69,29.75,3.0,WNW,16.1,-,0.01,Snow,Light Snow,290,2013-01-29 00:18:00
5:34 PM,28.4,21.2,74,29.75,1.8,WNW,23.0,28.8,0.01,Snow,Light Snow,290,2013-01-29 00:34:00
5:47 PM,26.6,24.8,93,29.76,1.5,West,18.4,-,0.01,Snow,Light Snow,280,2013-01-29 00:47:00
5:53 PM,27.0,24.1,89,29.80,3.0,West,18.4,-,0.01,Snow,Light Snow,280,2013-01-29 00:53:00
5:59 PM,26.6,24.8,93,29.76,1.8,West,19.6,-,0.00,Snow,Light Snow,270,2013-01-29 00:59:00
6:15 PM,26.6,24.8,93,29.76,3.0,West,18.4,-,0.00,Snow,Light Snow,270,2013-01-29 01:15:00
6:37 PM,26.6,23.0,86,29.77,2.0,West,12.7,19.6,0.00,Snow,Light Snow,260,2013-01-29 01:37:00
6:44 PM,26.6,21.2,80,29.78,1.8,West,9.2,-,0.00,Snow,Light Snow,260,2013-01-29 01:44:00
6:51 PM,26.6,21.2,80,29.78,3.0,West,9.2,-,0.00,Snow,Light Snow,280,2013-01-29 01:51:00
6:53 PM,26.1,21.9,84,29.83,3.0,West,9.2,-,0.00,Snow,Light Snow,280,2013-01-29 01:53:00
7:38 PM,26.6,23.0,86,29.79,6.0,West,13.8,-,0.00,Snow,Light Snow,280,2013-01-29 02:38:00
7:53 PM,26.1,21.9,84,29.85,8.0,West,16.1,-,0.00,Snow,Light Snow,280,2013-01-29 02:53:00
8:19 PM,26.6,19.4,74,29.80,5.0,West,15.0,-,0.00,Snow,Light Snow,280,2013-01-29 03:19:00
8:41 PM,24.8,15.8,69,29.80,9.0,West,15.0,-,0.00,Snow,Light Snow,280,2013-01-29 03:41:00
8:49 PM,24.8,17.6,74,29.81,4.0,West,17.3,-,0.00,Snow,Light Snow,280,2013-01-29 03:49:00
8:53 PM,25.0,19.9,81,29.86,2.5,West,16.1,-,0.00,Snow,Light Snow,280,2013-01-29 03:53:00
9:09 PM,24.8,19.4,80,29.81,3.0,WNW,15.0,-,0.00,Snow,Light Snow,290,2013-01-29 04:09:00
9:19 PM,24.8,19.4,80,29.82,4.0,WNW,17.3,-,0.00,Snow,Light Snow,290,2013-01-29 04:19:00
9:53 PM,24.1,18.0,77,29.88,9.0,West,15.0,-,0.00,,Overcast,270,2013-01-29 04:53:00
10:53 PM,24.1,17.1,75,29.91,10.0,West,12.7,-,N/A,,Overcast,270,2013-01-29 05:53:00
11:53 PM,21.9,16.0,78,29.91,10.0,West,6.9,-,N/A,,Overcast,260,2013-01-29 06:53:00